Weather History for Point Lay, AK

Change the Weather History Date:

Wednesday, February 12, 2014

  Actual Average Record
Temperature  
Mean Temperature -28 °F -  
Max Temperature -18 °F -11 °F 14 °F (2006)
Min Temperature -38 °F -20 °F -49 °F (2009)
Degree Days  
Heating Degree Days 93    
Moisture  
Dew Point -29 °F    
Average Humidity 69    
Maximum Humidity 76    
Minimum Humidity 63    
Precipitation  
Precipitation 0.00 in - - ()
Sea Level Pressure  
Sea Level Pressure 30.07 in    
Wind  
Wind Speed 12 mph (North)    
Max Wind Speed 16 mph    
Max Gust Speed -    
Visibility 5 miles    
Events Snow    
Averages and records for this station are not official NWS values.
T = Trace of Precipitation, MM = Missing Value Source: NWS Daily Summary

Daily Weather History Graph

Daily Weather History Graph

Search for Another Location

Airport:

Trip Planner

Search our weather history database for the weather conditions in past years. The results will help you decide how hot, cold, wet, or windy it might be!

Date:

Astronomy

Feb. 12, 2014 Rise Set
Actual Time 10:35 AM AKST 5:37 PM AKST
Civil Twilight 9:26 AM AKST 6:47 PM AKST
Nautical Twilight 8:14 AM AKST 7:59 PM AKST
Astronomical Twilight 7:04 AM AKST 9:09 PM AKST
Moon 3:36 PM AKST (2/12) 9:32 AM AKST (2/12)
Length of Visible Light 9h 21m
Length of Day
7h 02m
Waxing Gibbous, 96% of the Moon is Illuminated
Feb 12
Waxing Gibbous
Feb 14
Full
Feb 22
Last Quarter
Feb 28
New
Mar 8
First Quarter

Hourly Weather History & Observations

Time (AKST) Temp. Windchill Dew Point Humidity Pressure Visibility Wind Dir Wind Speed Gust Speed Precip Events Conditions
12:42 AM -18.4 °F -42.1 °F -25.6 °F 70% 30.12 in 2.0 mi NW 13.8 mph - N/A   Haze
12:56 AM -18.9 °F -41.8 °F -26.0 °F 70% 30.14 in 4.0 mi NW 12.7 mph - N/A   Haze
1:09 AM -18.4 °F -42.1 °F -27.4 °F 63% 30.12 in 6.0 mi NW 13.8 mph - N/A   Haze
1:56 AM -18.9 °F -42.8 °F -26.9 °F 67% 30.12 in 4.0 mi NW 13.8 mph - N/A   Haze
2:07 AM -18.4 °F -41.2 °F -27.4 °F 63% 30.10 in 3.0 mi NW 12.7 mph - N/A   Haze
2:23 AM -18.4 °F -43.7 °F -27.4 °F 63% 30.10 in 2.5 mi NW 16.1 mph - N/A   Haze
2:31 AM -18.4 °F -42.9 °F -27.4 °F 63% 30.10 in 4.0 mi NW 15.0 mph - N/A   Haze
2:38 AM -18.4 °F -42.1 °F -27.4 °F 63% 30.10 in 4.0 mi NW 13.8 mph - N/A   Haze
2:56 AM -20.2 °F -45.2 °F -27.4 °F 69% 30.10 in 3.0 mi NW 15.0 mph - N/A   Haze
3:04 AM -20.2 °F -45.2 °F -27.4 °F 69% 30.10 in 3.0 mi NNW 15.0 mph - N/A   Haze
3:15 AM -20.2 °F -45.2 °F -27.4 °F 69% 30.09 in 6.0 mi NNW 15.0 mph - N/A   Haze
3:46 AM -20.2 °F -44.4 °F -27.4 °F 69% 30.09 in 5.0 mi NNW 13.8 mph - N/A   Haze
3:56 AM -19.8 °F -43.0 °F -27.9 °F 66% 30.10 in 5.0 mi NNW 12.7 mph - N/A   Haze
4:04 AM -20.2 °F -46.0 °F -27.4 °F 69% 30.08 in 7.0 mi NW 16.1 mph - N/A   Scattered Clouds
4:56 AM -19.8 °F -43.0 °F -27.9 °F 66% 30.10 in 5.0 mi NW 12.7 mph - N/A   Haze
5:44 AM -20.2 °F -45.2 °F -27.4 °F 69% 30.07 in 2.5 mi NNW 15.0 mph - N/A   Haze
5:56 AM -20.2 °F -43.4 °F -27.4 °F 69% 30.07 in 4.0 mi NNW 12.7 mph - N/A   Haze
6:56 AM -20.9 °F -43.3 °F -28.8 °F 67% 30.08 in 6.0 mi NNW 11.5 mph - N/A   Haze
7:34 AM -20.2 °F -43.4 °F -29.2 °F 63% 30.06 in 3.0 mi NNW 12.7 mph - N/A   Haze
7:38 AM -20.2 °F -44.4 °F -29.2 °F 63% 30.06 in 2.5 mi NNW 13.8 mph - N/A   Haze
7:56 AM -20.9 °F -46.2 °F -27.9 °F 70% 30.07 in 1.8 mi NNW 15.0 mph - 0.00 in Snow Light Snow
8:06 AM -20.2 °F -43.4 °F -27.4 °F 69% 30.05 in - NNW 12.7 mph - 0.00 in   Overcast
8:56 AM -22.0 °F -44.7 °F -28.8 °F 71% 30.07 in - North 11.5 mph - 0.00 in   Mostly Cloudy
9:02 AM -22.0 °F -44.7 °F -29.2 °F 69% 30.05 in - North 11.5 mph - N/A   Mostly Cloudy
9:04 AM -22.0 °F -44.7 °F -29.2 °F 69% 30.05 in 1.5 mi North 11.5 mph - N/A   Haze
9:10 AM -22.0 °F -43.6 °F -29.2 °F 69% 30.05 in - North 10.4 mph - N/A   Mostly Cloudy
9:18 AM -22.0 °F -44.7 °F -29.2 °F 69% 30.05 in - North 11.5 mph - N/A   Mostly Cloudy
9:26 AM -22.0 °F -44.7 °F -29.2 °F 69% 30.05 in - North 11.5 mph - N/A   Mostly Cloudy
9:40 AM -22.0 °F -45.7 °F -29.2 °F 69% 30.05 in - North 12.7 mph - N/A   Mostly Cloudy
9:56 AM -22.0 °F -43.6 °F -28.8 °F 71% 30.07 in - North 10.4 mph - N/A   Mostly Cloudy
10:10 AM -22.0 °F -44.7 °F -29.2 °F 69% 30.05 in - North 11.5 mph - N/A   Mostly Cloudy
10:21 AM -22.0 °F -43.6 °F -29.2 °F 69% 30.05 in - North 10.4 mph - N/A   Mostly Cloudy
10:56 AM -22.9 °F -42.1 °F -29.9 °F 70% 30.07 in - North 8.1 mph - N/A   Mostly Cloudy
11:06 AM -23.8 °F -43.2 °F -29.2 °F 76% 30.06 in - North 8.1 mph - N/A   Mostly Cloudy
11:11 AM -23.8 °F -41.6 °F -29.2 °F 76% 30.06 in - North 6.9 mph - N/A   Mostly Cloudy
11:45 AM -23.8 °F -43.2 °F -31.0 °F 69% 30.06 in 4.0 mi North 8.1 mph - N/A   Haze
11:56 AM -25.6 °F -41.9 °F -31.0 °F 76% 30.06 in 3.0 mi NNE 5.8 mph - N/A   Haze
11:59 AM -25.6 °F -43.8 °F -31.0 °F 76% 30.06 in 2.5 mi NNE 6.9 mph - N/A   Haze
12:14 PM -23.8 °F -39.8 °F -29.2 °F 76% 30.06 in 8.0 mi NE 5.8 mph - N/A   Mostly Cloudy
12:56 PM -22.9 °F -34.0 °F -28.8 °F 74% 30.07 in - NNE 3.5 mph - N/A   Clear
1:56 PM -24.9 °F -38.9 °F -31.0 °F 73% 30.06 in - NE 4.6 mph - N/A   Clear
2:56 PM -25.6 °F -45.4 °F -32.8 °F 69% 30.04 in - NE 8.1 mph - N/A   Clear
3:56 PM -26.0 °F -44.2 °F -31.9 °F 73% 30.05 in - ENE 6.9 mph - N/A   Clear
4:56 PM -29.9 °F -49.0 °F - N/A% 30.05 in - ENE 6.9 mph - N/A   Clear
5:56 PM -31.0 °F -48.4 °F - N/A% 30.05 in 10.0 mi ENE 5.8 mph - N/A   Clear
6:56 PM -31.9 °F - - N/A% 30.05 in 10.0 mi North - - N/A   Clear
7:56 PM -35.9 °F -56.1 °F - N/A% 30.06 in 10.0 mi ENE 6.9 mph - N/A   Clear
8:56 PM -35.0 °F -58.3 °F - N/A% 30.05 in 10.0 mi ENE 9.2 mph - N/A   Clear
9:56 PM -37.8 °F -56.5 °F - N/A% 30.06 in - ENE 5.8 mph - N/A   Clear
10:56 PM -38.9 °F -61.6 °F - N/A% 30.06 in 10.0 mi ENE 8.1 mph - N/A   Clear
11:56 PM -38.2 °F -56.9 °F - N/A% 30.05 in - NE 5.8 mph - N/A   Clear